Location: Unspecified
(17.6330°N, 0.0000°E)
Time: 20:13:35
(UTC+00:00)

A-11 Canister half - Pass Details

Date: 17 June 2019
Orbit: 1514 x 1685 km, 47.2° (Epoch: 22 July)

Event Time Altitude Azimuth Distance (km) Brightness Sun altitude
Rises 11:10:39 0° 245° (WSW) 4,918 11.5 76.9°
Reaches altitude 10° 11:14:07 10° 253° (WSW) 3,917 11.1 77.6°
Maximum altitude 11:23:20 40° 319° (NW) 2,239 10.6 79.5°
Drops below altitude 10° 11:32:19 10° 27° (NNE) 3,805 11.3 81.2°
Sets 11:35:41 0° 35° (NE) 4,765 11.7 81.8°
